[ hide orbit diagram ]
For accurate long-term ephemerides, please instead use our Horizons system.This orbit viewer was implemented using two-body methods, and hence should not be used for determining accurate long-term trajectories (over several years or decades) or planetary encounter circumstances.
Orbital Elements at Epoch 2459200.5 (2020-Dec-17.0) TDB
Reference: JPL 15 (heliocentric ecliptic J2000)
Element | Value | Uncertainty (1-sigma) | Units |
e | .18283939520285 | 4.8387e-08 | |
a | 2.683142258140995 | 2.0853e-08 | au |
q | 2.192558150419286 | 1.3049e-07 | au |
i | 17.50600933447869 | 8.2379e-06 | deg |
node | 351.6713083360144 | 1.6568e-05 | deg |
peri | 281.8489123463224 | 2.7622e-05 | deg |
M | 144.1510236693746 | 2.2487e-05 | deg |
tp | 2458557.695059853982 (2019-Mar-15.19505985) | 9.8716e-05 | TDB |
period | 1605.328720962322 4.40 | 1.8715e-05 5.124e-08 | d yr |
n | .2242531360083037 | 2.6143e-09 | deg/d |
Q | 3.173726365862704 | 2.4666e-08 | au |
|
| | Orbit Determination Parameters
Additional Information
|
[ show covariance matrix ]
Physical Parameter Table
Parameter |
Symbol |
Value |
Units |
Sigma |
Reference |
Notes |
absolute magnitude |
H |
15.7 |
|
n/a |
MPO494344 |
|
diameter |
diameter |
2.792 |
km |
0.441 |
urn:nasa:pds:neowise_diameters_albedos::2.0[mainbelt] (http://adsabs.harvard.edu/abs/2011ApJ...741...68M) |
|
geometric albedo |
albedo |
0.157 |
|
0.055 |
urn:nasa:pds:neowise_diameters_albedos::2.0[mainbelt] (http://adsabs.harvard.edu/abs/2011ApJ...741...68M) |
|
|
245906 (2006 QT113) Discovered 2006-Aug-24 by NEAT at Palomar |
Reference: 20100726/Numbers.arc | Last Updated: 2010-07-28 |
|
|